Погода в Иркутске

Погода в Иркутске : погода сейчас, прогноз погоды и архив. Всё, что Вы хотите узнать о погоде в Иркутске!

Поиск расширенной информации на нашем сайте:

Другие новости

Новости СМИ2

Главная страница сайта

Новости сайта

03.07.2017

Напоминаем, что на нашем специализированном сайте Метеоцентр.Азия вы можете получить высокодетализированные автоматические прогнозы погоды по пунктам России, СНГ и мира в авиационном формате (включающие направление и скорость ветра, видимость, явления погоды, количество и форму облачности, нижнюю и верхнюю границу облачности).

Рекомендуем: Комплексное бухгалтерское обслуживание

Погода в Иркутске - сегодня

Время (UTC), дата Ветер
(°,м/с) 
Видим.   Явления Облачность Т
(°С)
Тd
(°С)
f(%) Тe
(°С)
Pmin
(гПа)
dP
(гПа)
Po
(мм)
O2
(г/м3)
Тmin Tmax R s Состояние
почвы
00 19.09.17 200 (Ю) 20000 м    9/0 средняя, верхняя 
[Ac trans|Ci fib]
+7.2 +4.3 82 +8  1012.3  1.3  717  281  +7.1        сухая 
03 19.09.17 070 (В) 20000 м    8/0 верхняя 
[Ci fib]
+13.3 +4.7 56 +15  1010.8  -0.3  717  275           
06 19.09.17 160 (Ю) 20000 м    10/0 верхняя 
[Ci fib]
+18.8 +4.9 40 +20  1006.3  -3.2  715  269           
09 19.09.17 150 (ЮВ) 20000 м    6/0 верхняя 
[Ci fib]
+20.1 +5.1 37 +20  1002.8  -3.1  712  267           
12 19.09.17 130 (ЮВ) 20000 м    10/6 600 м кучево-дожд., средняя, верхняя 
[Cb cap|Ac trans|Ci fib]
+14.6 +5.6 55 +15  1002.8  -1  712  271    +21.2       
15 19.09.17 220 (ЮЗ) н/о    8/4 600 м кучево-дожд., верхняя 
[Cb cap|Ci fib]
+13.4 +5.1 57 +15  1005  1.9  713  273           
18 19.09.17 280 (З) н/о    10/10 600 м кучево-дожд. 
[Cb cap]
+14.5 +7.4 62 +15  1006.2  1.3  714  272           
21 19.09.17 290 (З) н/о    9/5 600 м кучево-дожд., средняя, верхняя 
[Cb cap|Ac trans|Ci fib]
+12 +8.4 79 +12  1005.6  -0.9  713  274           
00 20.09.17 300 (СЗ) 20000 м    10/8 600 м кучево-дожд., средняя, верхняя 
[Cb cap|Ac trans|Ci fib]
+11.4 +8.4 82 +12  1005.8  713  274  +10.2        сухая 
03 20.09.17 280 (З) 20000 м    10/10 600 м кучево-дожд. 
[Cb cap]
+12.5 +8.6 77 +12  1005.8  0.2  714  273           
06 20.09.17 280 (З) 3{10}  10 км  слаб. ливневой дождь  10/10 600 м кучево-дожд. 
[Cb cap]
+10.2 +8.9 92 +11  1007.5  1.2  714  276           
09 20.09.17 280 (З) 20000 м  слаб. ливневой дождь  10/10 300 м кучево-дожд. 
[Cb cap]
+9.4 +8.1 92 +9  1009  1.2  715  277           
12 20.09.17 280 (З) н/о  слаб. ливневой дождь  9/9 600 м кучево-дожд. 
[Cb cap]
+9.4 +8.2 92 +9  1010  716  277    +12.5     
15 20.09.17 300 (СЗ) н/о    10/10 600 м кучево-дожд. 
[Cb cap]
+9.5 +7.9 90 +10  1010.6  0.6  717  278           
18 20.09.17 310 (СЗ) н/о    10/10 300 м кучево-дожд. 
[Cb cap]
+8.6 +6.6 87 +8  1010.9  0.1  717  279           
21 20.09.17 310 (СЗ) н/о    10/10 300 м кучево-дожд. 
[Cb cap]
+8 +5.9 87 +7  1011.7  0.6  717  280           
00 21.09.17 310 (СЗ) 20000 м    9/4 600 м кучево-дожд., средняя, верхняя 
[Cb cap|Ac As|Ci sp]
+6.8 +3.8 81 +7  1012.8  0.8  718  281  +6.8    0.0     
03 21.09.17 300 (СЗ) 20000 м    10/9 600 м кучево-дожд., средняя 
[Cb cap|Ac cast]
+8.6 +3.6 71 +7  1013  0.5  718  280           
06 21.09.17 300 (СЗ) 5-11{12}  20000 м    10/6 600 м средняя, верхняя 
[Cu med, cong|Ac lent|Cc]
+10.9 +2.8 57 +10  1011.4  -0.3  717  277           
09 21.09.17 310 (СЗ) 5-11{13}  20000 м    9/9 600 м кучево-дожд. 
[Cb cap]
+10.1 +2.4 59 +9  1011.1  -0.5  717  278           
12 21.09.17 300 (СЗ) 2{11}  н/о    1/1 1000 м 
[Sc]
+8 +1.4 63 +8  1011.6  0.1  717  280    +11.4       
15 21.09.17 тихо ()   н/о    1/0 верхняя 
[Ci fib]
+3.7 +2.1 89 +4  1011.6  -0.9  716  284           
18 21.09.17 080 (В) н/о    ясно 
+1.7 +0.8 94 +2  1009.5  -2.3  715  286           
21 21.09.17 130 (ЮВ) н/о  туман местами  ?/?  
+2.9 +2.2 95 +2  1006.8  -2.4  713  284           
00 22.09.17 060 (СВ) 20000 м  {туман}  9/9 1000 м 
[Sc]
+2.6 +0.8 88 +3  1004.6  -2.1  711  284  -0.2         
Время (UTC), дата Ветер
(°,м/с) 
Видим.   Явления Облачность Т
(°С)
Тd
(°С)
f(%) Тe
(°С)
Pmin
(гПа)
dP
(гПа)
Po
(мм)
O2
(г/м3)
Тmin Tmax R s Состояние
почвы

Для получения пояснительной информации подведите курсор к названию столбца.

ПОГОДА в Иркутске - архив

Всё, что Вы хотите узнать о погоде в Иркутске - удобно и подробно!

Выберите нужную дату (начиная с 1 января 2015* года) и нажмите кнопку "Найти".
Будут отображены архивные сводки погоды по пункту Иркутск, начиная с указанной даты.


Отображать данные в формате CSV (для использования в таблицах Excel)


Внимание! Наш архив погоды предназначен исключительно для личного некоммерческого использования в познавательных целях. Если Вам необходимы официальные справки о состоянии погоды (для производственных, юридических, коммерческих и т.п. целей), обращайтесь в органы Росгидромета.

*Примечание: данная дата относится к архиву по метеостанциям СССР (Россия, СНГ, Балтия).
Архив по метеостанциям Зарубежной Европы и Азии (кроме Китая) хранится 10 дней, по другим регионам земного шара (Китай, Африка, Америка, Австралия, Океания) - 1 день.

Иркутск - район местоположения метеостанции


Название, широта, долгота, высота метеостанции:
Иркутск (город) 52.3°ш. 104.3°д. 485 м над ур. моря [Российская Федерация]

Дополнительная информация

В oтличие oт бoльшинства пoгoдных сайтoв мы публикуем пoдрoбную метеoинфoрмацию в детальнoм прoфессиoнальнoм фoрмате.

Характеристики температуры и влажнoсти вoздуха измеряются на высoте 2 м в тени вдали oт зданий и деревьев.
Скoрoсть ветра измеряется на высoте 10 м (на урoвне рoста челoвека скoрoсть ветра ниже в 1.5-2 раза). Если метеoстанция нахoдится в гoрoде или в лесу, тo скoрoсть ветра занижена на 2-4 м/с пo сравнению с oткрытым местoм. Скoрoсть ветра над акватoриями крупных рек и oзёр, а также на вершинах хoлмoв на 2-5 м/с выше, чем в oбычных услoвиях.
Атмoсфернoе давление в разных тoчках местнoсти мoжет значительнo oтличаться oт давления на метеoстанции, в зависимoсти oт услoвий рельефа (при пoдъёме на 10 м давление пoнижается примернo на 1 мм рт.ст.).